TimeCDT,TemperatureF,Dew PointF,Humidity,Sea Level PressureIn,VisibilityMPH,Wind Direction,Wind SpeedMPH,Gust SpeedMPH,PrecipitationIn,Events,Conditions,WindDirDegrees,DateUTC
12:53 AM,48.9,37.0,64,30.27,10.0,South,4.6,-,N/A,,Overcast,170,2013-03-29 05:53:00
1:53 AM,46.9,39.0,74,30.26,10.0,SE,9.2,-,0.00,,Overcast,140,2013-03-29 06:53:00
2:53 AM,46.0,37.9,73,30.23,10.0,SE,9.2,-,N/A,,Overcast,140,2013-03-29 07:53:00
3:53 AM,45.0,39.0,80,30.22,10.0,SE,11.5,-,N/A,,Mostly Cloudy,140,2013-03-29 08:53:00
4:53 AM,45.0,39.0,80,30.23,10.0,ESE,3.5,-,N/A,,Overcast,110,2013-03-29 09:53:00
5:53 AM,44.1,37.9,79,30.22,10.0,SE,6.9,-,N/A,,Mostly Cloudy,130,2013-03-29 10:53:00
6:53 AM,44.1,37.9,79,30.23,10.0,SE,8.1,-,N/A,,Overcast,140,2013-03-29 11:53:00
7:53 AM,45.0,39.0,80,30.24,9.0,ESE,5.8,-,N/A,,Clear,120,2013-03-29 12:53:00
8:53 AM,48.0,39.9,74,30.25,10.0,SE,11.5,-,N/A,,Clear,130,2013-03-29 13:53:00
9:53 AM,51.1,42.1,71,30.25,10.0,ESE,6.9,-,N/A,,Clear,120,2013-03-29 14:53:00
10:53 AM,53.1,43.0,69,30.25,10.0,East,5.8,-,N/A,,Clear,80,2013-03-29 15:53:00
11:53 AM,57.0,43.0,59,30.24,10.0,East,5.8,-,N/A,,Partly Cloudy,90,2013-03-29 16:53:00
12:53 PM,59.0,43.0,55,30.23,10.0,East,3.5,-,N/A,,Scattered Clouds,100,2013-03-29 17:53:00
1:53 PM,60.1,43.0,53,30.22,10.0,NE,8.1,-,N/A,,Mostly Cloudy,50,2013-03-29 18:53:00
2:53 PM,60.1,44.1,55,30.20,10.0,East,10.4,-,N/A,,Mostly Cloudy,90,2013-03-29 19:53:00
3:53 PM,61.0,43.0,52,30.19,10.0,East,5.8,-,N/A,,Mostly Cloudy,80,2013-03-29 20:53:00
4:53 PM,60.1,42.1,51,30.19,10.0,NE,11.5,-,N/A,,Mostly Cloudy,40,2013-03-29 21:53:00
5:53 PM,57.9,42.1,56,30.19,10.0,ENE,6.9,-,N/A,,Scattered Clouds,60,2013-03-29 22:53:00
6:53 PM,55.9,43.0,62,30.20,10.0,East,8.1,-,N/A,,Scattered Clouds,90,2013-03-29 23:53:00
7:53 PM,53.1,42.1,66,30.20,10.0,East,3.5,-,N/A,,Clear,80,2013-03-30 00:53:00
8:53 PM,51.1,42.1,71,30.21,10.0,Calm,Calm,-,N/A,,Clear,0,2013-03-30 01:53:00
9:53 PM,46.0,41.0,83,30.23,9.0,Calm,Calm,-,N/A,,Clear,0,2013-03-30 02:53:00
10:53 PM,43.0,39.9,89,30.22,7.0,Calm,Calm,-,N/A,,Clear,0,2013-03-30 03:53:00
11:53 PM,43.0,39.9,89,30.22,7.0,Calm,Calm,-,N/A,,Clear,0,2013-03-30 04:53:00